timestamp,surface_pressure_avg,surface_temp_avg,battery_voltage,lat,long
2019-11-28 00:09:01+00:00,351.0363,5.94,12.81,47.84626,-54.09684
2019-11-28 00:19:01+00:00,355.3162,5.93,12.73,47.84626,-54.09684
2019-11-28 00:29:01+00:00,353.0862,5.9,12.73,47.84626,-54.09684
2019-11-28 00:39:01+00:00,351.5096,5.9,12.73,47.84626,-54.09684
2019-11-28 00:49:01+00:00,356.4046,5.9,12.73,47.84626,-54.09684
2019-11-28 00:59:01+00:00,356.3629,5.8,12.73,47.84626,-54.09684
2019-11-28 01:09:01+00:00,350.7279,5.8,12.73,47.84626,-54.09684
2019-11-28 01:19:01+00:00,349.6678,5.9,12.73,47.84626,-54.09684
2019-11-28 01:29:01+00:00,351.5212,5.9,12.73,47.84626,-54.09684
2019-11-28 01:39:01+00:00,345.7996,5.8,12.73,47.84626,-54.09684
2019-11-28 01:49:01+00:00,340.093,5.7,12.73,47.84626,-54.09684
2019-11-28 01:59:01+00:00,342.3780000000001,5.7,12.73,47.84626,-54.09684
2019-11-28 02:09:01+00:00,339.5397,5.7,12.73,47.84626,-54.09684
2019-11-28 02:19:01+00:00,328.7629,5.7,12.73,47.84626,-54.09684
2019-11-28 02:29:01+00:00,320.5046,5.7,12.73,47.84626,-54.09684
2019-11-28 02:39:01+00:00,314.6413,5.7,12.73,47.84626,-54.09684
2019-11-28 02:49:01+00:00,304.4547,5.7,12.73,47.84626,-54.09684
2019-11-28 02:59:01+00:00,292.5047,5.7,12.73,47.84626,-54.09684
2019-11-28 03:09:01+00:00,285.3197,5.66,12.73,47.84626,-54.09684
2019-11-28 03:19:01+00:00,279.5314,5.7,12.73,47.84626,-54.09684
2019-11-28 03:29:01+00:00,269.0664,5.65,12.73,47.84626,-54.09684
2019-11-28 03:39:01+00:00,258.7531,5.66,12.73,47.84626,-54.09684
2019-11-28 03:49:01+00:00,249.0397,5.7,12.73,47.84626,-54.09684
2019-11-28 03:59:01+00:00,238.9681,5.7,12.73,47.84626,-54.09684
2019-11-28 04:09:01+00:00,231.1948,5.7,12.73,47.84626,-54.09684
2019-11-28 04:19:01+00:00,224.8381,5.75,12.65,47.84626,-54.09684
2019-11-28 04:29:01+00:00,217.4964,5.77,12.65,47.84626,-54.09684
2019-11-28 04:39:01+00:00,209.7464,5.78,12.65,47.84626,-54.09684
2019-11-28 04:49:01+00:00,203.7831,5.79,12.65,47.84626,-54.09684
2019-11-28 04:59:01+00:00,196.1947,5.79,12.65,47.84626,-54.09684
2019-11-28 05:09:01+00:00,190.6331,5.76,12.65,47.84626,-54.09684
2019-11-28 05:19:01+00:00,194.5797,5.7,12.65,47.84626,-54.09684
2019-11-28 05:29:01+00:00,194.1465,5.5,12.65,47.84626,-54.09684
2019-11-28 05:39:01+00:00,189.6381,5.4,12.65,47.84626,-54.09684
2019-11-28 05:49:01+00:00,190.1481,5.4,12.65,47.84626,-54.09684
2019-11-28 05:59:01+00:00,191.2948,5.41,12.65,47.84626,-54.09684
2019-11-28 06:09:01+00:00,189.2432,5.46,12.65,47.84626,-54.09684
2019-11-28 06:19:01+00:00,186.8215,5.45,12.65,47.84626,-54.09684
2019-11-28 06:29:01+00:00,188.5698,5.44,12.65,47.84626,-54.09684
2019-11-28 06:39:01+00:00,188.7997,5.45,12.65,47.84626,-54.09684
2019-11-28 06:49:01+00:00,188.8215,5.44,12.65,47.84626,-54.09684
2019-11-28 06:59:01+00:00,200.1531,5.44,12.65,47.84626,-54.09684
2019-11-28 07:09:01+00:00,209.8582,5.46,12.65,47.84626,-54.09684
2019-11-28 07:19:01+00:00,209.5031,5.48,12.65,47.84626,-54.09684
2019-11-28 07:29:01+00:00,209.8098,5.48,12.65,47.84626,-54.09684
2019-11-28 07:39:01+00:00,216.2031,5.47,12.65,47.84626,-54.09684
2019-11-28 07:49:01+00:00,223.1214,5.46,12.65,47.84626,-54.09684
2019-11-28 07:59:01+00:00,225.9597,5.4,12.65,47.84626,-54.09684
2019-11-28 08:09:01+00:00,228.9647,5.4,12.65,47.84626,-54.09684
2019-11-28 08:19:01+00:00,234.9731,5.39,12.65,47.84626,-54.09684
2019-11-28 08:29:01+00:00,240.293,5.38,12.65,47.84626,-54.09684
2019-11-28 08:39:01+00:00,243.8614,5.36,12.65,47.84626,-54.09684
2019-11-28 08:49:01+00:00,248.9281,5.36,12.65,47.84626,-54.09684
2019-11-28 08:59:01+00:00,257.7864,5.58,12.65,47.84626,-54.09684
2019-11-28 09:09:01+00:00,265.1797,5.84,12.65,47.84626,-54.09684
2019-11-28 09:19:01+00:00,271.4547,5.9,12.65,47.84626,-54.09684
2019-11-28 09:29:01+00:00,280.2981,5.83,12.65,47.84626,-54.09684
2019-11-28 09:39:01+00:00,289.3147,5.87,12.65,47.84626,-54.09684
2019-11-28 09:49:01+00:00,294.3614,5.88,12.65,47.84626,-54.09684
2019-11-28 09:59:01+00:00,301.9913,5.89,12.65,47.84626,-54.09684
2019-11-28 10:09:01+00:00,312.9747,5.9,12.65,47.84626,-54.09684
2019-11-28 10:19:01+00:00,320.9447,5.9,12.65,47.84626,-54.09684
2019-11-28 10:29:01+00:00,329.4063,5.9,12.65,47.84626,-54.09684
2019-11-28 10:39:01+00:00,337.7113,5.94,12.65,47.84626,-54.09684
2019-11-28 10:49:01+00:00,344.7147,5.98,12.65,47.84626,-54.09684
2019-11-28 10:59:01+00:00,353.1129,5.99,12.65,47.84626,-54.09684
2019-11-28 11:09:01+00:00,364.8912,6.0,12.65,47.84626,-54.09684
2019-11-28 11:19:01+00:00,377.4096,5.99,12.65,47.84626,-54.09684
2019-11-28 11:29:01+00:00,382.8329,6.0,12.65,47.84626,-54.09684
2019-11-28 11:39:01+00:00,385.3229,5.99,12.65,47.84626,-54.09684
2019-11-28 11:49:01+00:00,395.093,5.99,12.65,47.84626,-54.09684
2019-11-28 11:59:01+00:00,400.0812,6.0,12.65,47.84626,-54.09684
2019-11-28 12:09:01+00:00,393.8113,5.98,12.65,47.84626,-54.09684
2019-11-28 12:19:01+00:00,392.5646,5.97,13.29,47.84626,-54.09684
2019-11-28 12:29:01+00:00,395.3962,5.97,13.29,47.84626,-54.09684
2019-11-28 12:39:01+00:00,393.4546,5.99,13.29,47.84626,-54.09684
2019-11-28 12:49:01+00:00,391.2047,5.98,13.29,47.84626,-54.09684
2019-11-28 12:59:01+00:00,396.9178,5.99,13.29,47.84626,-54.09684
2019-11-28 13:09:01+00:00,403.2495,6.0,13.29,47.84626,-54.09684
2019-11-28 13:19:01+00:00,405.1529,5.99,14.16,47.84626,-54.09684
2019-11-28 13:29:01+00:00,406.7296,5.99,14.16,47.84626,-54.09684
2019-11-28 13:39:01+00:00,408.4679,5.99,14.16,47.84626,-54.09684
2019-11-28 13:49:01+00:00,399.2012,5.99,14.16,47.84626,-54.09684
2019-11-28 13:59:01+00:00,390.7795,5.97,14.16,47.84626,-54.09684
2019-11-28 14:09:01+00:00,391.5663,5.98,14.16,47.84626,-54.09684
2019-11-28 14:19:01+00:00,391.3245,5.99,14.56,47.84626,-54.09684
2019-11-28 14:29:01+00:00,373.9346,5.96,14.56,47.84626,-54.09684
2019-11-28 14:39:01+00:00,363.6113,5.93,14.56,47.84626,-54.09684
2019-11-28 14:49:01+00:00,363.6862,5.97,14.56,47.84626,-54.09684
2019-11-28 14:59:01+00:00,358.8163,5.95,14.56,47.84626,-54.09684
2019-11-28 15:09:01+00:00,348.2079,5.9,14.56,47.84626,-54.09684
2019-11-28 15:19:01+00:00,346.1447,5.9,14.48,47.84626,-54.09684
2019-11-28 15:29:01+00:00,338.5196,5.9,14.48,47.84626,-54.09684
2019-11-28 15:39:01+00:00,320.0464,5.6,14.48,47.84626,-54.09684
2019-11-28 15:49:01+00:00,301.0663,5.7,14.48,47.84626,-54.09684
2019-11-28 15:59:01+00:00,291.3864,5.4,14.48,47.84626,-54.09684
2019-11-28 16:09:01+00:00,276.9914,5.4,14.48,47.84626,-54.09684
2019-11-28 16:19:01+00:00,258.8998,5.4,14.72,47.84626,-54.09684
2019-11-28 16:29:01+00:00,251.3198,5.4,14.72,47.84626,-54.09684
2019-11-28 16:39:01+00:00,254.9081,5.43,14.72,47.84626,-54.09684
2019-11-28 16:49:01+00:00,254.5081,5.47,14.72,47.84626,-54.09684
2019-11-28 16:59:01+00:00,243.1664,5.48,14.72,47.84626,-54.09684
2019-11-28 17:09:01+00:00,231.8781,5.49,14.72,47.84626,-54.09684
2019-11-28 17:19:01+00:00,223.0714,5.5,14.24,47.84626,-54.09684
2019-11-28 17:29:01+00:00,214.0231,5.5,14.24,47.84626,-54.09684
2019-11-28 17:39:01+00:00,204.1248,5.5,14.24,47.84626,-54.09684
2019-11-28 17:49:01+00:00,198.1264,5.5,14.24,47.84626,-54.09684
2019-11-28 17:59:01+00:00,199.2681,5.5,14.24,47.84626,-54.09684
2019-11-28 18:09:01+00:00,200.9764,5.5,14.24,47.84626,-54.09684
2019-11-28 18:19:01+00:00,196.8348,5.52,13.76,47.84626,-54.09684
2019-11-28 18:29:01+00:00,195.3215,5.5,13.76,47.84626,-54.09684
2019-11-28 18:39:01+00:00,199.8448,5.55,13.76,47.84626,-54.09684
2019-11-28 18:49:01+00:00,201.4281,5.58,13.76,47.84626,-54.09684
2019-11-28 18:59:01+00:00,198.1215,5.59,13.76,47.84626,-54.09684
2019-11-28 19:09:01+00:00,199.6531,5.6,13.76,47.84626,-54.09684
2019-11-28 19:19:01+00:00,204.6248,5.6,13.29,47.84626,-54.09684
2019-11-28 19:29:01+00:00,205.1347,5.6,13.29,47.84626,-54.09684
2019-11-28 19:39:01+00:00,206.5481,5.67,13.29,47.84626,-54.09684
2019-11-28 19:49:01+00:00,211.0465,5.69,13.29,47.84626,-54.09684
2019-11-28 19:59:01+00:00,217.4365,5.7,13.29,47.84626,-54.09684
2019-11-28 20:09:01+00:00,220.7781,5.7,13.29,47.84626,-54.09684
2019-11-28 20:19:01+00:00,222.0631,5.7,12.97,47.84626,-54.09684
2019-11-28 20:29:01+00:00,220.8514,5.7,12.97,47.84626,-54.09684
2019-11-28 20:39:01+00:00,219.5897,5.72,12.97,47.84626,-54.09684
2019-11-28 20:49:01+00:00,217.7148,5.8,12.97,47.84626,-54.09684
2019-11-28 20:59:01+00:00,224.3681,5.8,12.97,47.84626,-54.09684
2019-11-28 21:09:01+00:00,231.7648,5.8,12.97,47.84626,-54.09684
2019-11-28 21:19:01+00:00,233.1564,5.81,12.81,47.84626,-54.09684
2019-11-28 21:29:01+00:00,239.9915,5.84,12.81,47.84626,-54.09684
2019-11-28 21:39:01+00:00,256.1447,5.83,12.81,47.84626,-54.09684
2019-11-28 21:49:01+00:00,261.2381,5.89,12.81,47.84626,-54.09684
2019-11-28 21:59:01+00:00,257.7214,5.87,12.81,47.84626,-54.09684
2019-11-28 22:09:01+00:00,258.7797,5.88,12.81,47.84626,-54.09684
2019-11-28 22:19:01+00:00,272.1914,5.87,12.81,47.84626,-54.09684
2019-11-28 22:29:01+00:00,275.4397,5.88,12.81,47.84626,-54.09684
2019-11-28 22:39:01+00:00,270.6531,5.89,12.81,47.84626,-54.09684
2019-11-28 22:49:01+00:00,280.6664,5.9,12.81,47.84626,-54.09684
2019-11-28 22:59:01+00:00,301.9763,5.9,12.81,47.84626,-54.09684
2019-11-28 23:09:01+00:00,306.918,5.9,12.81,47.84626,-54.09684
2019-11-28 23:19:01+00:00,303.1198,5.9,12.73,47.84626,-54.09684
2019-11-28 23:29:01+00:00,317.9897,5.92,12.73,47.84626,-54.09684
2019-11-28 23:39:01+00:00,335.49300000000005,5.9,12.73,47.84626,-54.09684
2019-11-28 23:49:01+00:00,337.1313,5.9,12.73,47.84626,-54.09684
2019-11-28 23:59:01+00:00,338.7296,5.9,12.73,47.84626,-54.09684
